Simultaneous Nadir Overpasses (SNOs) Predictions

Prediction of SNOs between AQUA and NOAA-19 Satellite Orbit:

Table of predicted SNOs for the next 14.0 days since TLE Epoch: 4/23/2016
Index Date (AQUA) Time (AQUA) Lat,Lon (AQUA) SZA (AQUA ) Date (NOAA-19) Time (NOAA-19) Lat,Lon (NOAA-19) SZA (NOAA-19 ) Distance(km) Time Diff (sec)
1 04/25/2016 09:17:28 80.78, 2.59 69.34 04/25/2016 09:17:33 80.77, 2.76 69.32 3.31 5
2 04/27/2016 14:01:43 80.78, -68.48 68.64 04/27/2016 14:00:39 80.79, -68.45 68.67 0.85 64
3 04/27/2016 14:51:09 -80.77, 99.37 111.41 04/27/2016 14:51:44 -80.77, 99.31 111.42 1.10 35
4 04/29/2016 19:35:25 -80.80, 27.93 112.04 04/29/2016 19:34:50 -80.79, 28.11 112.05 3.29 35
5 04/29/2016 20:24:50 80.76,-163.97 67.88 04/29/2016 20:25:44 80.77,-164.05 67.87 1.66 54
6 05/02/2016 01:09:06 80.79, 124.53 67.29 05/02/2016 01:08:50 80.79, 124.70 67.27 3.28 16
7 05/04/2016 06:42:46 -80.79,-138.81 113.39 05/04/2016 06:43:00 -80.79,-138.83 113.39 0.35 14
8 05/06/2016 11:27:01 -80.80, 149.94 113.98 05/06/2016 11:26:06 -80.81, 149.83 113.94 1.98 55




NCC Satellite Simultaneous Nadir Overpasses (SNOs) Prediction Service
